SAR-LUPE 3 1 32283U 07053A 25309.96376179 .00134685 00000+0 79505-3 0 9995 2 32283 98.1613 119.9652 0008555 198.2185 161.8774 15.77709922 5433 SAPPHIRE 1 39088U 13009C 25309.92819339 .00000202 00000+0 85502-4 0 9991 2 39088 98.4166 129.7873 0010984 188.1426 171.9583 14.35138690664553 PRAETORIAN SDA_602 1 65565U 25203A 25309.71049251 .00000157 00000+0 12915-3 0 9990 2 65565 81.3043 217.7983 0007371 79.0777 281.1209 13.84614893 7771 PRAETORIAN SDA_603 1 65566U 25203B 25309.75269366 .00000259 00000+0 21676-3 0 9993 2 65566 81.3049 217.6985 0011309 78.0507 282.1918 13.85355714 7789 PRAETORIAN SDA_604 1 65567U 25203C 25309.49531872 .00000054 00000+0 37580-4 0 9994 2 65567 81.3070 218.0177 0007627 82.6195 277.5829 13.84575564 7745 PRAETORIAN SDA_605 1 65568U 25203D 25309.68738681 .00000143 00000+0 11537-3 0 9995 2 65568 81.3037 217.7635 0010481 77.6970 282.5360 13.85186568 7773 PRAETORIAN SDA_606 1 65569U 25203E 25309.49058114 .00000065 00000+0 47440-4 0 9997 2 65569 81.3066 218.0097 0008053 80.0730 280.1335 13.84691350 7748 PRAETORIAN SDA_607 1 65570U 25203F 25309.46905434 .00000154 00000+0 12497-3 0 9994 2 65570 81.3053 217.9770 0010661 78.6771 281.5583 13.85228236 7748 PRAETORIAN SDA_608 1 65571U 25203G 25309.71378471 .00000124 00000+0 10006-3 0 9999 2 65571 81.3018 217.7870 0007485 83.1496 277.0512 13.84535423 7777 PRAETORIAN SDA_609 1 65572U 25203H 25309.27072578 .00000032 00000+0 17969-4 0 9994 2 65572 81.3061 218.2032 0008366 78.4329 281.7767 13.84764991 7715 PRAETORIAN SDA_610 1 65573U 25203J 25309.70897933 .00000175 00000+0 14551-3 0 9994 2 65573 81.3017 217.7808 0007940 80.4412 279.7642 13.84653396 7776 PRAETORIAN SDA_611 1 65574U 25203K 25309.71679649 .00000137 00000+0 11165-3 0 9994 2 65574 81.3026 217.7953 0007275 85.7464 274.4524 13.84461796 7776 PRAETORIAN SDA_612 1 65575U 25203L 25309.68895831 .00000166 00000+0 13622-3 0 9996 2 65575 81.3051 217.7799 0010303 77.2447 282.9861 13.85150589 7770 PRAETORIAN SDA_613 1 65576U 25203M 25309.70581892 .00000112 00000+0 89006-4 0 9990 2 65576 81.3020 217.7787 0008179 78.6351 281.5724 13.84731899 7772 PRAETORIAN SDA_614 1 65577U 25203N 25309.70287750 .00000133 00000+0 10778-3 0 9999 2 65577 81.3033 217.7834 0008345 76.2289 283.9796 13.84803453 7781 PRAETORIAN SDA_615 1 65578U 25203P 25309.46705362 .00000087 00000+0 66356-4 0 9999 2 65578 81.3036 217.9601 0010840 79.3612 280.8765 13.85281156 7745 PRAETORIAN SDA_616 1 65579U 25203Q 25309.71530356 .00000147 00000+0 12065-3 0 9991 2 65579 81.3066 217.8183 0007343 84.2425 275.9569 13.84498067 7774 PRAETORIAN SDA_617 1 65580U 25203R 25309.69234842 .00000133 00000+0 10690-3 0 9998 2 65580 81.3052 217.7841 0009902 76.4977 283.7283 13.85065672 7772 PRAETORIAN SDA_618 1 65581U 25203S 25309.75431606 .00000142 00000+0 11438-3 0 9994 2 65581 81.3036 217.6905 0011083 78.2515 281.9885 13.85318248 7785 PRAETORIAN SDA_619 1 65582U 25203T 25309.47745884 .00000122 00000+0 97622-4 0 9998 2 65582 81.3053 217.9869 0009650 77.1035 283.1199 13.85019869 8374 PRAETORIAN SDA_620 1 65583U 25203U 25309.69585157 .00000143 00000+0 11603-3 0 9995 2 65583 81.3041 217.7782 0009506 76.4382 283.7834 13.84979133 7774 PRAETORIAN SDA_621 1 65584U 25203V 25309.90732252 .00000186 00000+0 15370-3 0 9992 2 65584 81.3038 217.5668 0010122 76.4032 283.8252 13.85109356 7802 PRAETORIAN SDA_601 1 65585U 25203W 25309.71851316 .00000135 00000+0 11012-3 0 9998 2 65585 81.3052 217.8138 0007233 87.3679 272.8305 13.84419325 7773